Overview Statistics Trail Chart Weather Telemetry Raw packets
 

This is the latest recevied weather packets stored in our database for station/object K7DC. If no packets are shown the sender has not sent any weather packets the latest 10 day(s).

<< 14 15 16 17 18 19 20 >>
Time Temp. Humidity Pressure Rain* Wind** Luminosity Snow
1788540406 31.67° C 48% 1017.4 hPa 0 mm - 643 W/m² -
1788540100 31.67° C 49% 1017.2 hPa 0 mm - 625 W/m² -
1788539797 31.67° C 49% 1017.4 hPa 0 mm - 611 W/m² -
1788539492 31.67° C 49% 1017.3 hPa 0 mm - 596 W/m² -
1788539191 31.67° C 49% 1017.2 hPa 0 mm - 581 W/m² -
1788538892 31.11° C 50% 1017.3 hPa 0 mm - 567 W/m² -
1788538588 30.56° C 52% 1017.3 hPa 0 mm - 550 W/m² -
1788538288 30.56° C 51% 1017.1 hPa 0 mm - 533 W/m² -
1788537984 30.56° C 51% 1017.3 hPa 0 mm - 517 W/m² -
1788537680 30.56° C 52% 1017.2 hPa 0 mm - 501 W/m² -
1788537374 30.56° C 52% 1017.1 hPa 0 mm - 486 W/m² -
1788537068 30° C 55% 1017.1 hPa 0 mm - 463 W/m² -
1788536768 29.44° C 56% 1017.1 hPa 0 mm - 448 W/m² -
1788536463 29.44° C 56% 1016.9 hPa 0 mm - 428 W/m² -
1788536162 29.44° C 56% 1017.1 hPa 0 mm - 409 W/m² -
1788535859 30° C 55% 1017.2 hPa 0 mm - 388 W/m² -
1788535554 29.44° C 57% 1017.1 hPa 0 mm - 372 W/m² -
1788535249 28.89° C 58% 1016.9 hPa 0 mm - 354 W/m² -
1788534944 28.89° C 58% 1017 hPa 0 mm - 69 W/m² -
1788534644 28.89° C 59% 1017 hPa 0 mm - 316 W/m² -
1788534344 28.33° C 60% 1017 hPa 0 mm - 298 W/m² -
1788534039 28.33° C 61% 1017 hPa 0 mm - 280 W/m² -
1788533752 28.33° C 61% 1016.9 hPa 0 mm - 260 W/m² -
1788533433 27.78° C 61% 1017 hPa 0 mm - 238 W/m² -
1788533129 27.78° C 62% 1016.8 hPa 0 mm - 101 W/m² -

* Rain latest hour (hover to see other rain measurements)
** Current wind speed in m/s (hover to see current wind gust speed)